Flag for China Weather past 2 weeks in Dalian, Liaoning, China

Now
27 °F

Passing clouds.


Feels Like: 18 °F
Forecast: 28 / 35 °F
Wind: 8 mph from Northwest

Location: Dalian Airport

Current Time: Dec 20, 2014 at 6:02:49 PM

Latest Report: Dec 20, 2014 at 5:30 PM


Visibility: N/A

Pressure: 30.33 "Hg

Humidity: 50%

Dew point: 10 °F

Location of DalianLocation

Historic Weather in Dalian — Graph

°F

Dalian temperature yesterday

Maximum temperature yesterday: 46 °F (at 11:30 AM)
Minimum temperature yesterday: 28 °F (at 9:30 PM)
Average temperature yesterday: 40 °F

Past Weeks' High & Low Weather Summary

 TemperatureHumidityPressure
High46 °F (Dec 19, 11:30 AM)100% (Dec 7, 1:00 PM)30.66 "Hg (Dec 7, 1:00 PM)
Low12 °F (Dec 8, 5:30 AM)27% (Dec 13, 1:30 PM)30.09 "Hg (Dec 19, 1:00 PM)
Average29 °F57%30.34 "Hg
* Reported Dec 5 5:00 PM — Dec 20 5:00 PM, Dalian, Weather by CustomWeather, © 2014

Note: Actual official high and low records may vary slightly from our data, if they occured in-between our weather recording intervals... More about our weather records

Advertising

Dalian weather history for previous 24 hours

 ConditionsComfort  
Time TempWeatherWind HumidityBarometerVisibility
5:00 PM
Dec 20
27 °FPassing clouds.8 mph46%30.33 "HgN/A
4:30 PM27 °FPassing clouds.10 mph46%30.33 "HgN/A
4:00 PM27 °FScattered clouds.8 mph46%30.33 "HgN/A
3:30 PM28 °FScattered clouds.10 mph47%30.33 "HgN/A
3:00 PM28 °FScattered clouds.8 mph47%30.33 "HgN/A
2:30 PM28 °FScattered clouds.13 mph43%30.30 "HgN/A
2:00 PM30 °FScattered clouds.10 mph40%30.30 "HgN/A
1:30 PM30 °FScattered clouds.10 mph40%30.30 "HgN/A
1:00 PM30 °FScattered clouds.13 mph40%30.30 "HgN/A
12:30 PM30 °FScattered clouds.13 mph40%30.30 "HgN/A
12:00 PM30 °FScattered clouds.13 mph37%30.33 "HgN/A
11:30 AM30 °FScattered clouds.15 mph37%30.33 "HgN/A
11:00 AM30 °FScattered clouds.13 mph34%30.33 "HgN/A
10:30 AM30 °FScattered clouds.13 mph37%30.36 "HgN/A
10:00 AM28 °FScattered clouds.13 mph40%30.36 "HgN/A
9:30 AM28 °FScattered clouds.8 mph43%30.36 "HgN/A
9:00 AM28 °FScattered clouds.6 mph43%30.33 "HgN/A
8:30 AM25 °FScattered clouds.6 mph50%30.33 "HgN/A
8:00 AM25 °FScattered clouds.8 mph50%30.33 "HgN/A
7:30 AM25 °FPassing clouds.6 mph54%30.30 "HgN/A
7:00 AM25 °FPassing clouds.6 mph54%30.30 "HgN/A
6:30 AM25 °FPassing clouds.8 mph46%30.30 "HgN/A
6:00 AM25 °FPassing clouds.8 mph46%30.30 "HgN/A
5:30 AM25 °FPassing clouds.8 mph46%30.27 "HgN/A
4:30 AM27 °FPassing clouds.10 mph46%30.27 "HgN/A
4:00 AM27 °FPassing clouds.10 mph46%30.27 "HgN/A
3:30 AM28 °FPassing clouds.13 mph43%30.27 "HgN/A
3:00 AM28 °FPassing clouds.13 mph43%30.27 "HgN/A
2:30 AM28 °FPassing clouds.13 mph47%30.27 "HgN/A
2:00 AM28 °FClear.13 mph51%30.27 "Hg10 mi
1:30 AM28 °FClear.13 mph59%30.27 "Hg10 mi
1:00 AM28 °FPassing clouds.10 mph59%30.24 "HgN/A
12:30 AM28 °FPassing clouds.13 mph55%30.24 "HgN/A
12:00 AM28 °FPassing clouds.10 mph55%30.24 "HgN/A
11:30 PM
Dec 19
28 °FPassing clouds.13 mph51%30.24 "HgN/A
11:00 PM28 °FClear.10 mph55%30.24 "Hg10 mi
10:30 PM28 °FClear.13 mph51%30.21 "Hg10 mi
10:00 PM28 °FPassing clouds.10 mph51%30.21 "HgN/A
9:30 PM28 °FPassing clouds.13 mph51%30.21 "HgN/A
9:00 PM30 °FPassing clouds.15 mph51%30.18 "HgN/A
8:30 PM30 °FPassing clouds.17 mph51%30.18 "HgN/A
8:00 PM32 °FClear.20 mph51%30.18 "Hg10 mi
7:30 PM32 °FClear.13 mph55%30.15 "Hg4 mi
7:00 PM34 °FFog.13 mph56%30.15 "Hg3 mi
6:30 PM34 °FFog.20 mph56%30.12 "Hg3 mi
6:00 PM36 °FFog.17 mph60%30.09 "Hg2 mi
Weather by CustomWeather, © 2014

See weather overviewHow to use our weather pages